Content
SEND FEEDBACK

Daily
Averages
Monthly
Summary
United States of America

GORMAN, TEXAS


Home > North America > United States > Texas
Elevation: 1400 feet     Latitude: 32 13N     Longitude: 098 40W

WEATHER
 
SELECT A DAY
Number of Records: 230,409;   Date Range: 10/5/04 - 8/12/14
 
SHARE

PRINT THIS DATA

[ ← Previous Day ]
WEATHER ALMANAC - JANUARY 24, 2013
[ Next Day → ]
[ °C ]   °F
Weather ElementAverageHighLow
Temperature66 °F82.4 °F (4:15 pm)53.6 °F (10:35 pm)
Dewpoint49.4 °F55.4 °F (9:15 am)37.4 °F (4:35 pm)
Humidity59.2 %82 % (3:35 am)20 % (4:35 pm)
Barometer30.13 in30.20 in (9:55 am)30.05 in (5:15 pm)
Wind Speed9.3 mph18.4 mph (11:35 am)
Wind Gust24.2 mph (10:55 am)
Weather ElementAverage
Visibility10 mi
Wind DirectionWSW (231.7 °)

Weather ElementTotal
Precipitation---
Cooling Degree Days3 (Base 65)
Growing Degree Days18 (Base 50)
Averaged from 71 records on January 24, 2013
WEATHER CONDITIONS BREAKOUT
WIND DIRECTION BREAKOUT
WEATHER BY HOUR - JANUARY 24, 2013
[ °C ]   °F
Local TimeTemperatureDewpointHumidityBarometerVisibilityWind DirectionWind SpeedGust SpeedPrecipitationEventsConditions
12:35 AM60.8 °F51.8 °F72 %30.16 in10.0 miSW (220°)15.0 mph20.7 mphClear
12:55 AM60.8 °F51.8 °F72 %30.16 in10.0 miSW (220°)16.1 mph20.7 mphClear
1:15 AM60.8 °F51.8 °F72 %30.16 in10.0 miSW (220°)15.0 mph23.0 mphClear
1:35 AM60.8 °F51.8 °F72 %30.16 in10.0 miSW (220°)12.7 mph19.6 mphClear
1:55 AM60.8 °F51.8 °F72 %30.17 in10.0 miSW (230°)12.7 mph18.4 mphClear
2:15 AM60.8 °F51.8 °F72 %30.17 in10.0 miWSW (240°)8.1 mphClear
2:35 AM60.8 °F51.8 °F72 %30.17 in10.0 miWSW (240°)5.8 mphClear
2:55 AM59.0 °F51.8 °F77 %30.18 in10.0 miCalmClear
3:15 AM59.0 °F51.8 °F77 %30.18 in10.0 miCalmClear
3:35 AM57.2 °F51.8 °F82 %30.18 in10.0 miWSW (240°)5.8 mphClear
3:55 AM57.2 °F51.8 °F82 %30.18 in10.0 miWSW (240°)3.5 mphClear
4:15 AM57.2 °F51.8 °F82 %30.17 in10.0 miSW (230°)8.1 mphClear
4:35 AM59.0 °F51.8 °F77 %30.17 in10.0 miSW (230°)9.2 mphClear
4:55 AM59.0 °F51.8 °F77 %30.17 in10.0 miWSW (240°)9.2 mphClear
5:15 AM59.0 °F51.8 °F77 %30.17 in10.0 miWSW (240°)8.1 mphClear
5:35 AM59.0 °F51.8 °F77 %30.17 in10.0 miWSW (240°)9.2 mphClear
5:55 AM59.0 °F51.8 °F77 %30.17 in10.0 miWSW (240°)9.2 mphClear
6:15 AM59.0 °F53.6 °F82 %30.17 in10.0 miWSW (240°)9.2 mph16.1 mphClear
6:35 AM59.0 °F53.6 °F82 %30.17 in10.0 miWSW (250°)9.2 mphClear
6:55 AM59.0 °F53.6 °F82 %30.16 in10.0 miSW (230°)13.8 mph19.6 mphClear
7:15 AM59.0 °F53.6 °F82 %30.17 in10.0 miSW (230°)11.5 mph18.4 mphClear
7:35 AM59.0 °F53.6 °F82 %30.18 in10.0 miWSW (250°)6.9 mphClear
7:55 AM59.0 °F53.6 °F82 %30.19 in10.0 miWest (280°)5.8 mphClear
8:15 AM59.0 °F53.6 °F82 %30.19 in10.0 miWest (260°)5.8 mphClear
8:35 AM60.8 °F53.6 °F77 %30.19 in10.0 miWest (260°)4.6 mphClear
8:55 AM60.8 °F53.6 °F77 %30.19 in10.0 miWSW (250°)8.1 mphClear
9:15 AM62.6 °F55.4 °F77 %30.19 in10.0 miWSW (240°)10.4 mphClear
9:35 AM64.4 °F55.4 °F73 %30.19 in10.0 miWSW (250°)16.1 mph20.7 mphClear
9:55 AM64.4 °F55.4 °F73 %30.20 in10.0 miWest (260°)12.7 mph21.9 mphClear
10:15 AM66.2 °F55.4 °F68 %30.20 in10.0 miWSW (250°)11.5 mph16.1 mphClear
10:35 AM64.4 °F55.4 °F73 %30.20 in10.0 miSW (230°)15.0 mph23.0 mphClear
10:55 AM68.0 °F55.4 °F64 %30.20 in10.0 miWSW (240°)13.8 mph24.2 mphClear
11:15 AM69.8 °F55.4 °F60 %30.19 in10.0 miWSW (240°)9.2 mph21.9 mphClear
11:35 AM71.6 °F53.6 °F53 %30.19 in10.0 miWSW (240°)18.4 mphClear
11:55 AM73.4 °F51.8 °F47 %30.18 in10.0 miWSW (250°)12.7 mph23.0 mphClear
12:15 PM73.4 °F51.8 °F47 %30.17 in10.0 miWSW (250°)15.0 mph24.2 mphClear
12:35 PM73.4 °F51.8 °F47 %30.16 in10.0 miWSW (240°)15.0 mph21.9 mphClear
12:55 PM77.0 °F51.8 °F41 %30.15 in10.0 miSW (230°)10.4 mph18.4 mphClear
1:15 PM77.0 °F50.0 °F39 %30.14 in10.0 miWSW (240°)13.8 mph20.7 mphClear
1:35 PM78.8 °F50.0 °F36 %30.12 in10.0 miWSW (240°)16.1 mph20.7 mphClear
1:55 PM78.8 °F50.0 °F36 %30.11 in10.0 miWSW (240°)10.4 mphClear
2:15 PM78.8 °F50.0 °F36 %30.10 in10.0 miSW (220°)13.8 mph18.4 mphClear
2:35 PM80.6 °F48.2 °F32 %30.09 in10.0 miSW (230°)10.4 mph16.1 mphClear
2:55 PM80.6 °F48.2 °F32 %30.08 in10.0 miSW (230°)8.1 mph16.1 mphClear
3:15 PM80.6 °F46.4 °F30 %30.07 in10.0 miSSW (210°)11.5 mph18.4 mphClear
3:35 PM80.6 °F46.4 °F30 %30.07 in10.0 miWSW (250°)10.4 mphClear
3:55 PM80.6 °F44.6 °F28 %30.07 in10.0 miWSW (240°)11.5 mph18.4 mphClear
4:15 PM82.4 °F41.0 °F23 %30.06 in10.0 miWest (260°)10.4 mph16.1 mphClear
4:35 PM82.4 °F37.4 °F20 %30.06 in10.0 miSW (230°)10.4 mph17.3 mphClear
4:55 PM80.6 °F39.2 °F23 %30.06 in10.0 miWSW (240°)10.4 mphClear
5:15 PM80.6 °F42.8 °F26 %30.05 in10.0 miSW (220°)8.1 mphClear
5:35 PM78.8 °F42.8 °F28 %30.05 in10.0 miSouth (190°)9.2 mphClear
5:55 PM75.2 °F44.6 °F34 %30.05 in10.0 miSouth (190°)8.1 mphClear
6:15 PM73.4 °F44.6 °F36 %30.05 in10.0 miSouth (190°)4.6 mphClear
6:35 PM73.4 °F44.6 °F36 %30.05 in10.0 miSouth (180°)4.6 mphClear
6:55 PM71.6 °F44.6 °F38 %30.06 in10.0 miSSW (200°)5.8 mphClear
7:15 PM69.8 °F44.6 °F40 %30.06 in10.0 miSSW (210°)6.9 mphClear
7:35 PM68.0 °F44.6 °F43 %30.06 in10.0 miSSW (210°)6.9 mphClear
7:55 PM66.2 °F44.6 °F46 %30.06 in10.0 miSouth (180°)6.9 mphClear
8:15 PM64.4 °F44.6 °F49 %30.06 in10.0 miSSW (200°)10.4 mphClear
8:35 PM64.4 °F46.4 °F52 %30.06 in10.0 miSSW (200°)11.5 mphClear
8:55 PM66.2 °F50.0 °F56 %30.07 in10.0 miSW (230°)6.9 mphClear
9:15 PM62.6 °F46.4 °F55 %30.07 in10.0 miNW (310°)5.8 mphClear
9:35 PM57.2 °F44.6 °F63 %30.07 in10.0 miWNW (300°)5.8 mphClear
9:55 PM55.4 °F44.6 °F67 %30.08 in10.0 miNW (310°)5.8 mphClear
10:15 PM55.4 °F44.6 °F67 %30.08 in10.0 miNW (310°)5.8 mphClear
10:35 PM53.6 °F44.6 °F72 %30.08 in10.0 miWNW (300°)3.5 mphClear
10:55 PM53.6 °F42.8 °F67 %30.09 in10.0 miWNW (300°)5.8 mphClear
11:15 PM53.6 °F44.6 °F72 %30.08 in10.0 miWest (280°)8.1 mphClear
11:35 PM53.6 °F44.6 °F72 %30.08 in10.0 miSW (230°)5.8 mphClear
11:55 PM57.2 °F50.0 °F77 %30.07 in10.0 miSW (220°)4.6 mphClear
Hourly data recorded from KMKN, located miles away from Gorman, Texas







STORIES FROM OUR PARTNERS